Portada
METAR-TAF:

METAR-TAF

Aeroports :

Merimbula, Austràlia

latitud: 36-54-31S, longitud: 149-54-05E, altitud: 2 m

Observació

L'informe es va fer fa 43 minuts, a les 09:00 UTC
Vent 5 kt del Sud/Sud-Est
Temperatura 17°C
Humitat 59%
Pressió 1024 hPa
Visibilitat 10 km o més
Cel cobert a una alçada de 6000 ft

METAR: YMER 170900Z AUTO 15005KT 9999 // OVC060 17/09 Q1024

Hora: 20:43 (09:43 UTC)


TAF: manca

Observacions i pronòstics meteorològics de més de 4000 aeroports (METAR i TAF).

Les estacions disponibles són els punts grocs i vermells al mapa.

Posi el ratolí al punt desitjat per veure el nom de l'estació.

Feu clic per veure les observacions i els pronòstics meteorològics.

Per canviar el mapa: feu clic els botons verds amb una creu de color negre per apropar; al botó verd amb un guió per allunyar la imatge; o en les fletxes verdes per a mapes adjacents.


METAR-TAF: